ONEWEB-0216 (48801 NORAD) Tracking and Keplerian Element Data

This shows tracking and keplerian element data for the satellite.

Feedback or suggestion? Click here.




ElementValue
Catalog48801
NameONEWEB-0216
Epoch Orbit185
Epoch Day170.58334491
Epoch Year2021
RAAN268.898
Inclination87.414
Eccentricity0.0007149
Argument of Perigee189.5113
Mean Anonmoly93.0795
Mean Motion15.28272375
Decay Rate-0.00908034
L11 48801U 21045AL 21170.58334491 -.00908034 00000-0 -35998-1 0 9992
L22 48801 87.4140 268.8980 0007149 189.5113 93.0795 15.28272375 1856

Live tracking and technical data element details for ONEWEB-0216 (NORAD 48801). ONEWEB-0216 can be tracked NOW for your location showing map with azimuth and elevation plus other details from your city location.

Track the satellite on the map from your city or location and see movement details for azimuth, elevation, latitude, longitude, range, height, and movement on the map or in text.







IsCatalogInMostPopularTable: catalog: 48801, numindb: 8
Update: records affected: 1



GetName: 48801 ONEWEB-0216

Hit Count: updated at: Mon, 21 Jun 2021 03:55:26 GMT